This demonstration page uses our WeatherBlox Daily Observations layout. Learn more.

Left ArrowRight Arrow

Hourly Observations for November 3, 2016

Temp ( °F °C ) Dew Point ( °F °C ) Humidity (%) Winds ( mph kmh ) Pressure ( in mb ) Visibility ( mi km ) Precip ( " mm )
12:29 am 00:29 Cloudy 63 17.2 59 15 87 87 ENE 14 22 30.09 1019 10 16 0.00 0.00
12:53 am 00:53 Cloudy 63 17.2 58 14.4 84 84 ENE 14 22 30.04 1017 10 16 0.00 0.00
1:53 am 01:53 Cloudy 63 17.2 57 13.9 81 81 NE 10 17 30.06 1018 10 16 0.00 0.00
2:48 am 02:48 Cloudy 63 17 55 13 77 77 N 16 26 30.12 1020 10 16 0.00 0.00
2:53 am 02:53 Cloudy 63 17.2 56 13.3 78 78 N 18 30 30.08 1019 10 16 0.00 0.00
3:24 am 03:24 Cloudy 63 17 57 14 83 83 NNE 18 30 30.12 1020 10 16 0.00 0.00
3:53 am 03:53 Cloudy 61 16.1 56 13.3 84 84 NNE 17 28 30.09 1019 10 16 0.00 0.00
4:53 am 04:53 Cloudy 61 16.1 54 12.2 78 78 NE 16 26 30.10 1019 10 16 0.00 0.00
5:53 am 05:53 Cloudy 61 16.1 53 11.7 75 75 NNE 16 26 30.11 1020 10 16 0.00 0.00
6:53 am 06:53 Cloudy 62 16.7 54 12.2 75 75 NE 18 30 30.12 1020 10 16 0.00 0.00
7:18 am 07:18 Cloudy 63 17 54 12 73 73 NE 21 33 30.15 1021 10 16 0.00 0.00
7:53 am 07:53 Cloudy 62 16.7 54 12.2 75 75 NE 21 33 30.14 1021 10 16 0.00 0.00
8:53 am 08:53 Cloudy 62 16.7 55 12.8 78 78 ENE 20 31 30.17 1022 10 16 0.00 0.00
9:53 am 09:53 Cloudy 65 18.3 55 12.8 70 70 ENE 15 24 30.20 1023 10 16 0.00 0.00
10:53 am 10:53 Cloudy 65 18.3 56 13.3 73 73 undefined N/A 30.22 1023 10 16 0.00 0.00
11:26 am 11:26 Cloudy 64 18 59 15 83 83 undefined N/A 30.24 1024 10 16 0.00 0.00
11:53 am 11:53 Cloudy 65 18.3 59 15 81 81 undefined N/A 30.25 1025 10 16 0.00 0.00
12:53 pm 12:53 Cloudy 67 19.4 58 14.4 73 73 undefined N/A 30.24 1024 10 16 0.00 0.00
1:53 pm 13:53 Cloudy 67 19.4 58 14.4 73 73 ENE 9 15 30.23 1024 10 16 0.00 0.00
2:53 pm 14:53 Cloudy 66 18.9 58 14.4 75 75 undefined N/A 30.22 1023 10 16 0.00 0.00
3:53 pm 15:53 Cloudy 66 18.9 58 14.4 75 75 ENE 12 19 30.21 1023 10 16 0.00 0.00
4:53 pm 16:53 Cloudy 66 18.9 59 15 78 78 E 9 15 30.20 1023 10 16 0.00 0.00
5:53 pm 17:53 Cloudy 67 19.4 59 15 76 76 NE 9 15 30.20 1023 10 16 0.00 0.00
6:53 pm 18:53 Cloudy 66 18.9 59 15 78 78 NNE 7 11 30.20 1023 10 16 0.00 0.00
7:53 pm 19:53 Cloudy 67 19.4 59 15 76 76 NE 8 13 30.22 1023 10 16 0.00 0.00
8:53 pm 20:53 Cloudy 65 18.3 58 14.4 78 78 ENE 14 22 30.23 1024 10 16 0.00 0.00
9:44 pm 21:44 Cloudy 64 18 57 14 78 78 ENE 15 24 30.24 1024 10 16 0.00 0.00
9:53 pm 21:53 Cloudy 65 18.3 57 13.9 76 76 ENE 12 19 30.24 1024 10 16 0.00 0.00
10:53 pm 22:53 Cloudy 64 17.8 57 13.9 78 78 ENE 15 24 30.25 1024 10 16 0.00 0.00
11:53 pm 23:53 Cloudy 64 17.8 56 13.3 75 75 ENE 13 20 30.26 1025 10 16 0.00 0.00

Powered by AerisWeather